Location: Heidgraben
(53.7081°N, 9.6576°E)
Time: 00:15:03
(UTC+00:00)

Cosmos 2333 Rocket - Pass Details

Date: 30 October 2020
Orbit: 841 x 861 km, 70.8° (Epoch: 28 November)

Event Time Altitude Azimuth Distance (km) Brightness Sun altitude
Exits shadow 02:03:06 14° 356° (N) 2,219 4.6 -37.1°
Maximum altitude 02:03:41 14° 3° (N) 2,207 4.6 -37.0°
Drops below altitude 10° 02:06:36 10° 34° (NE) 2,480 5.3 -36.7°
Sets 02:10:24 0° 59° (ENE) 3,411 6.4 -36.2°
